Theta_e
317 317 317 318 318 316 314 312 314 314 313 311 311 312 312 310 308 309 308 306 306 308
308 313 312 306 307 306 305 304 304 304 303 302 302 302 300 298 297 297 297 296 296 297
299 301 301 301 300 299 300 300 298 296 295 294 294 294 293 292 292 292 292 292 292 292
295 295 295 295 294 293 293 293 292 292 292 291 290 290 290 289 289 289 289 289 289 289
292 292 292 291 291 291 290 290 289 289 289 289 288 288 287 287 287 287 286 287 287 287
289 290 289 289 289 289 288 287 287 287 286 286 286 286 286 286 286 285 285 285 285 285
288 288 288 287 287 286 286 285 285 284 284 284 284 285 285 285 284 283 283 284 284 283
286 287 285 285 284 284 284 284 284 283 283 284 285 285 284 284 284 283 283 282 282 283
285 284 284 283 283 283 283 283 283 283 283 282 284 289 289 285 283 283 282 281 281 282
284 284 283 283 283 283 283 283 282 282 282 282 283 288 289 287 283 282 281 281 281 282
283 283 283 283 282 282 282 282 281 281 281 281 283 288 288 286 282 282 282 282 283 283
282 282 281 281 281 281 279 278 278 279 277 277 277 287 287 285 283 283 283 283 284 283
281 280 279 280 279 278 277 278 278 278 275 274 272 283 286 285 281 278 281 283 283 284
279 279 279 278 277 275 275 276 271 273 272 271 272 274 284 285 283 281 280 281 281 282
Wind_Speed
7 5 4 4 6 5 5 4 4 7 7 7 6 6 5 4 4 4 4 7 6 3
6 8 8 8 7 7 5 4 6 7 7 7 7 8 6 5 6 5 5 5 5 4
7 8 8 7 9 9 7 6 8 7 6 7 7 6 7 6 5 6 4 4 5 4
8 8 8 8 8 8 8 7 7 7 7 7 7 6 7 6 6 7 6 6 6 6
8 8 8 8 9 9 10 7 8 7 7 7 6 6 7 6 6 6 6 5 5 5
7 8 8 9 9 9 9 7 7 7 7 6 6 6 6 6 5 6 6 5 5 4
7 8 8 8 8 8 7 8 7 6 6 6 6 5 5 5 5 4 4 3 4 4
7 8 8 8 7 7 7 6 6 7 6 5 5 4 4 4 4 3 3 4 4 4
8 7 7 7 7 6 6 6 6 6 6 5 3 5 6 5 4 4 5 5 5 5
7 8 7 7 6 6 6 6 6 5 5 5 3 6 7 8 4 4 5 5 4 3
7 7 6 6 7 6 4 5 4 4 4 4 4 7 8 10 5 4 5 3 3 4
6 7 6 6 7 4 4 2 2 3 4 4 3 6 6 6 4 4 4 5 5 5
6 6 6 6 6 3 2 3 2 3 3 2 1 3 5 3 1 0 0 4 5 9
5 6 5 5 3 3 3 4 3 3 2 1 2 1 3 3 1 1 2 2 2 3
Wind_Direction
171 169 154 123 117 94 94 82 77 81 76 69 69 76 70 69 65 57 46 41 28 11
126 133 125 106 104 109 103 95 83 77 81 67 61 61 70 70 55 63 53 45 36 26
99 102 105 116 109 101 101 94 87 81 80 79 71 72 71 64 52 67 46 44 41 29
96 95 94 99 107 102 90 85 87 89 83 74 70 62 75 67 57 62 49 33 34 28
100 100 103 106 104 99 100 89 94 87 84 79 72 65 72 72 59 62 52 34 32 23
102 108 107 102 98 95 100 92 86 91 94 90 83 82 75 79 67 54 42 26 21 360
108 111 108 103 100 104 102 104 103 98 101 92 89 85 77 71 65 58 50 32 28 17
114 109 106 101 103 106 107 114 115 107 90 86 82 79 87 89 94 74 46 34 31 40
124 120 116 119 123 116 114 109 100 90 98 96 98 95 96 107 75 46 30 15 14 11
139 135 133 132 129 120 113 109 102 107 121 121 118 79 66 60 53 43 29 17 359 349
148 136 142 132 121 116 108 118 127 112 97 93 62 62 62 57 44 38 22 5 310 330
145 144 144 130 126 111 109 101 116 117 98 88 59 74 69 71 42 12 358 352 342 341
139 138 141 139 137 126 120 119 115 100 94 117 106 17 19 36 191 292 288 352 337 329
129 145 144 124 94 115 113 111 78 78 10 96 169 296 41 23 48 355 320 297 263 298